Regional Weather Roundup
Issued by NWS Sterling, VA

Home | Current Version | Previous Version | Graphics & Text | Print | Product List | Glossary On
Versions: 1 2 3 4 5 6 7 8 9 10 11 12 13 14 15 16 17 18 19 20 21 22 23 24 25 26 27 28 29 30 31 32 33 34 35 36 37 38 39 40 41 42 43 44 45 46 47 48 49 50
000
ASUS41 KLWX 210010
RWRLWX

REGIONAL WEATHER ROUNDUP
NATIONAL WEATHER SERVICE BALTIMORE MD/WASHINGTON DC
700 PM EST SAT DEC 20 2014

Note: "FAIR" indicates few or no clouds below 12,000 feet
with no significant weather and/or obstructions to visibility.
 TC=TEMPERATURE CELSIUS

 * =Non NWS site. Station does not report precipitation (e.g. rain,
    snow, etc.), thunder, or fog.

DCZ001-MDZ009-015-VAZ040>042-051-053>054-210100-
WASHINGTON METRO

CITY           SKY/WX    TMP DP  RH WIND       PRES   REMARKS
WASHINGTON NAT CLOUDY    38  20  48 W6        30.31R
DULLES         CLOUDY    33  22  63 CALM      30.29R
ANDREWS AFB    MOCLDY    35  22  58 W7        30.28R
FT BELVOIR     CLOUDY    33  25  72 CALM      30.30S
QUANTICO       CLOUDY    35  24  64 NW3       30.32S
COLLEGE PARK*  CLOUDY    37  23  56 CALM      30.30R
LEESBURG*      CLOUDY    34  27  75 MISG      30.29F
GAITHERSBURG*  CLOUDY    34  19  55 CALM      30.32R

$$

MDZ006>007-011-014-210100-
BALTIMORE METRO

CITY           SKY/WX    TMP DP  RH WIND       PRES   REMARKS
BWI AIRPORT    CLOUDY    34  23  64 CALM      30.30R
MD SCIENCE CTR   N/A     36  22  56 MISG      30.31R
MARTIN STATE   CLEAR     34  27  75 CALM      30.32R
ANNAPOLIS      CLOUDY    35  24  64 CALM      30.31R
FORT MEADE*    CLOUDY    32  27  80 CALM      30.33R

$$

MDZ012-015-019>023-210100-
MARYLAND EASTERN SHORE

CITY           SKY/WX    TMP DP  RH WIND       PRES   REMARKS
OCEAN CITY     PTCLDY    33  26  75 CALM      30.30R
SALISBURY      MOCLDY    35  25  66 CALM      30.30R
BAY BRIDGE AP*   N/A     32  23  69 CALM      30.31R
CAMBRIDGE*     CLEAR     34  28  80 CALM      30.30R
EASTON*        MOCLDY    32  28  86 CALM      30.34R

$$

MDZ017>025-210100-
SOUTHERN MARYLAND

CITY           SKY/WX    TMP DP  RH WIND       PRES   REMARKS
PATUXENT RIVER CLOUDY    34  23  64 SW3       30.30R
ST INIGOES     CLOUDY    35  21  56 CALM      30.30R
LEONARDTOWN*   CLOUDY    32  25  74 CALM      30.31R

$$

MDZ003>005-210100-
NORTH CENTRAL MARYLAND

CITY           SKY/WX    TMP DP  RH WIND       PRES   REMARKS
FREDERICK*     CLOUDY    34  21  60 CALM      30.32R
HAGERSTOWN APT CLOUDY    33  20  58 CALM      30.27R
WESTMINSTER*   CLOUDY    30  21  69 CALM      30.27R

$$

MDZ501>502-210100-
WESTERN MARYLAND

CITY           SKY/WX    TMP DP  RH WIND       PRES   REMARKS
OAKLAND*       CLOUDY    27  27 100 CALM      30.14R
CUMBERLAND*    MOCLDY    32  23  69 CALM      30.28S

$$

VAZ025>031-210100-
SHENANDOAH VALLEY

CITY           SKY/WX    TMP DP  RH WIND       PRES   REMARKS
WINCHESTER*    CLOUDY    34  21  60 CALM      30.25F
FRONT ROYAL*   CLOUDY    32  23  69 CALM      30.25S
LURAY*         CLOUDY    34  28  80 N3        30.24S
NEW MARKET*    CLOUDY    32  24  72 CALM      30.23S
STAUNTON*      CLOUDY    34  26  74 CALM      30.24R
WAYNESBORO*    CLOUDY    33  24  70 CALM      30.21S

$$

WVZ021-048>050-054>055-210100-
EASTERN WEST VIRGINIA PANHANDLE

CITY           SKY/WX    TMP DP  RH WIND       PRES   REMARKS
MARTINSBURG    CLOUDY    32  20  61 E3        30.27S
PETERSBURG*    CLOUDY    32  24  72 CALM      30.25R

$$

VAZ036>039-050-210100-
CENTRAL FOOTHILLS

CITY           SKY/WX    TMP DP  RH WIND       PRES   REMARKS
CHARLOTTESVILL CLOUDY    36  24  62 E3        30.26R
CULPEPER*      CLOUDY    34  27  75 CALM      30.29S
ORANGE*        CLOUDY    34  28  80 CALM      30.29S
GORDONSVILLE*  CLOUDY    33  26  73 CALM      30.27S
WARRENTON*     CLOUDY    34  30  85 CALM      30.29R

$$

VAZ055>057-210100-
NORTH AND CENTRAL PIEDMONT

CITY           SKY/WX    TMP DP  RH WIND       PRES   REMARKS
FREDERICKSBRG* CLOUDY    36  26  66 CALM      30.29F
STAFFORD*      CLOUDY    33  22  64 CALM      30.34R

$$

NCZ024-NYZ072-PAZ021-071-VAZ022-071-210100-
OTHER REGIONAL OBSERVATIONS

CITY           SKY/WX    TMP DP  RH WIND       PRES   REMARKS
NEW YORK CITY  CLOUDY    32  19  58 VRB7      30.30S
PHILADELPHIA   CLOUDY    35  21  56 N5        30.30R
PITTSBURGH     MOCLDY    28  20  71 CALM      30.25R
ROANOKE        CLOUDY    36  25  64 SE7       30.25R
RICHMOND       CLOUDY    37  22  54 NE5       30.29R
RALEIGH        CLOUDY    38  34  85 CALM      30.28R FOG

$$

ANZ530>537-210100-
MARINE OBSERVATIONS

STATION/POSITION TIME  TEMP    WIND        PRES
                       AIR SEA DIR/SP/G
                 (UTC) (F)     (DEG/KT/KT) (MB)
THOMAS PT LIGHT  0000   36 41  150/  2/  2 1027.3R
BALT KEY BRIDGE  0000   35     110/  2/  3 1026.0R
COVE POINT       0000   34     280/  3/  5 1025.7S
LEWISETTA        0000   36 41  320/  5/  5 1025.8F
SOLOMONS ISLAND  0000      43                N/A

$$



USA.gov is the U.S. government's official web portal to all federal, state and local government web resources and services.